[Date Prev][Date Next][Thread Prev][Thread Next] - [Date Index][Thread Index][Author Index]
2 Line ISS Keps 6-4
- Subject: [sarex] 2 Line ISS Keps 6-4
- From: "Scott Avery WA6LIE" <wa6lie@xxxxxxx>
- Date: Sat, 4 Jun 2005 04:08:27 -0700
- Seal-Send-Time: Sat, 4 Jun 2005 04:08:27 -0700
ISS
1 25544U 98067A 05155.26700231 .00024195 00000-0 18160-3 0 6219
2 25544 051.6460 327.1178 0004617 204.4080 158.9649 15.72454141373659
----
Via the sarex mailing list at AMSAT.ORG courtesy of AMSAT-NA.
To unsubscribe, send "unsubscribe sarex" to Majordomo@amsat.org
AMSAT Home